| time (UTC) | temp F | wind direction | speed MPH | gust MPH | rain 1hr in | rain 24hr in | rain mn in | humidity % | barometer mb |
| 20260509093050 | 59 | 0 | 0.0 | 0.0 | 0.00 | 0.00 | 0.00 | 9 | 1020.4 |
| 20260509091552 | 60 | 0 | 0.0 | 2.0 | 0.00 | 0.00 | 0.00 | 9 | 1020.5 |
| 20260509090053 | 60 | 314 | 0.0 | 3.0 | 0.00 | 0.00 | 0.00 | 10 | 1020.5 |
| 20260509084556 | 61 | 309 | 1.0 | 4.0 | 0.00 | 0.00 | 0.00 | 9 | 1020.7 |
| 20260509083055 | 61 | 313 | 2.0 | 4.0 | 0.00 | 0.00 | 0.00 | 9 | 1020.7 |
| 20260509081552 | 60 | 311 | 2.0 | 4.0 | 0.00 | 0.00 | 0.00 | 10 | 1020.8 |
| 20260509080108 | 60 | 0 | 0.0 | 0.0 | 0.00 | 0.00 | 0.00 | 12 | 1021.0 |
| 20260509074554 | 60 | 0 | 0.0 | 0.0 | 0.00 | 0.00 | 0.00 | 9 | 1021.1 |
| 20260509073159 | 60 | 284 | 1.0 | 3.0 | 0.00 | 0.00 | 0.00 | 10 | 1021.3 |
| 20260509071550 | 61 | 277 | 1.0 | 3.0 | 0.00 | 0.00 | 0.00 | 9 | 1021.3 |
| 20260509070051 | 62 | 301 | 2.0 | 3.0 | 0.00 | 0.00 | 0.00 | 9 | 1021.4 |
| 20260509064552 | 62 | 298 | 2.0 | 4.0 | 0.00 | 0.00 | 0.00 | 10 | 1021.5 |
| 20260509063048 | 62 | 285 | 3.0 | 6.0 | 0.00 | 0.00 | 0.00 | 12 | 1021.6 |
| 20260509061555 | 62 | 287 | 2.0 | 6.0 | 0.00 | 0.00 | 0.00 | 11 | 1021.7 |
| 20260509060051 | 62 | 309 | 2.0 | 4.0 | 0.00 | 0.00 | 0.00 | 12 | 1021.8 |
| 20260509054549 | 62 | 296 | 2.0 | 4.0 | 0.00 | 0.00 | 0.00 | 12 | 1021.9 |
| 20260509053052 | 62 | 298 | 3.0 | 5.0 | 0.00 | 0.00 | 0.00 | 12 | 1022.0 |
| 20260509051558 | 62 | 294 | 3.0 | 5.0 | 0.00 | 0.00 | 0.00 | 11 | 1022.0 |
| 20260509050047 | 61 | 294 | 3.0 | 5.0 | 0.00 | 0.00 | 0.00 | 13 | 1022.1 |
| 20260509044549 | 61 | 302 | 3.0 | 5.0 | 0.00 | 0.00 | 0.00 | 10 | 1022.0 |
| 20260509043058 | 61 | 307 | 3.0 | 5.0 | 0.00 | 0.00 | 0.00 | 14 | 1022.0 |
| 20260509041553 | 60 | 307 | 3.0 | 5.0 | 0.00 | 0.00 | 0.00 | 18 | 1021.8 |
| 20260509040101 | 59 | 320 | 2.0 | 4.0 | 0.00 | 0.00 | 0.00 | 23 | 1021.8 |
| 20260509034551 | 60 | 318 | 2.0 | 5.0 | 0.00 | 0.00 | 0.00 | 18 | 1021.6 |
| 20260509033055 | 61 | 309 | 3.0 | 6.0 | 0.00 | 0.00 | 0.00 | 17 | 1021.6 |
| 20260509031554 | 61 | 302 | 3.0 | 7.0 | 0.00 | 0.00 | 0.00 | 18 | 1021.5 |
| 20260509030050 | 62 | 313 | 3.0 | 5.0 | 0.00 | 0.00 | 0.00 | 17 | 1021.5 |
| 20260509024547 | 62 | 304 | 3.0 | 5.0 | 0.00 | 0.00 | 0.00 | 18 | 1021.4 |
| 20260509023047 | 62 | 307 | 3.0 | 9.0 | 0.00 | 0.00 | 0.00 | 18 | 1021.5 |
| 20260509021548 | 63 | 301 | 3.0 | 6.0 | 0.00 | 0.00 | 0.00 | 18 | 1021.2 |
| 20260509020045 | 64 | 298 | 3.0 | 7.0 | 0.00 | 0.00 | 0.00 | 19 | 1021.3 |
| 20260509014553 | 64 | 302 | 3.0 | 7.0 | 0.00 | 0.00 | 0.00 | 20 | 1021.3 |
| 20260509013101 | 65 | 277 | 3.0 | 7.0 | 0.00 | 0.00 | 0.00 | 20 | 1021.3 |
| 20260509011549 | 66 | 293 | 3.0 | 9.0 | 0.00 | 0.00 | 0.00 | 19 | 1021.4 |
| 20260509010051 | 68 | 313 | 3.0 | 7.0 | 0.00 | 0.00 | 0.00 | 19 | 1021.4 |
| 20260509004610 | 68 | 322 | 3.0 | 8.0 | 0.00 | 0.00 | 0.00 | 18 | 1021.5 |
| 20260509003054 | 69 | 278 | 3.0 | 10.0 | 0.00 | 0.00 | 0.00 | 21 | 1021.6 |
| 20260509001549 | 69 | 288 | 4.0 | 9.0 | 0.00 | 0.00 | 0.00 | 22 | 1021.6 |
| 20260509000051 | 71 | 275 | 3.0 | 10.0 | 0.00 | 0.00 | 0.00 | 22 | 1021.8 |
| 20260508234552 | 71 | 284 | 3.0 | 9.0 | 0.00 | 0.00 | 0.00 | 23 | 1021.8 |
| 20260508233106 | 71 | 276 | 3.0 | 8.0 | 0.00 | 0.00 | 0.00 | 23 | 1021.8 |
| 20260508231551 | 71 | 277 | 4.0 | 10.0 | 0.00 | 0.00 | 0.00 | 24 | 1021.8 |
| 20260508230057 | 71 | 268 | 3.0 | 9.0 | 0.00 | 0.00 | 0.00 | 27 | 1022.0 |
| 20260508224555 | 72 | 302 | 3.0 | 9.0 | 0.00 | 0.00 | 0.00 | 31 | 1022.0 |
| 20260508223052 | 72 | 311 | 2.0 | 11.0 | 0.00 | 0.00 | 0.00 | 26 | 1022.1 |
| 20260508221547 | 72 | 304 | 2.0 | 9.0 | 0.00 | 0.00 | 0.00 | 30 | 1022.3 |
| 20260508220054 | 73 | 173 | 2.0 | 7.0 | 0.00 | 0.00 | 0.00 | 34 | 1022.7 |
| 20260508214551 | 73 | 299 | 1.0 | 7.0 | 0.00 | 0.00 | 0.00 | 31 | 1022.9 |
| 20260508213053 | 74 | 298 | 3.0 | 8.0 | 0.00 | 0.00 | 0.00 | 29 | 1022.9 |
| 20260508211554 | 73 | 309 | 4.0 | 9.0 | 0.00 | 0.00 | 0.00 | 28 | 1022.9 |
| 20260508210113 | 74 | 19 | 2.0 | 9.0 | 0.00 | 0.00 | 0.00 | 25 | 1022.8 |
| 20260508204556 | 74 | 319 | 3.0 | 8.0 | 0.00 | 0.00 | 0.00 | 24 | 1022.8 |
| 20260508203048 | 73 | 14 | 5.0 | 10.0 | 0.00 | 0.00 | 0.00 | 27 | 1022.9 |
| 20260508201550 | 73 | 313 | 3.0 | 12.0 | 0.00 | 0.00 | 0.00 | 28 | 1023.1 |
| 20260508200050 | 73 | 329 | 4.0 | 11.0 | 0.00 | 0.00 | 0.00 | 39 | 1023.1 |
| 20260508194551 | 72 | 340 | 3.0 | 10.0 | 0.00 | 0.00 | 0.00 | 40 | 1023.3 |
| 20260508193052 | 72 | 349 | 5.0 | 11.0 | 0.00 | 0.00 | 0.00 | 38 | 1023.3 |
| 20260508191552 | 72 | 355 | 3.0 | 11.0 | 0.00 | 0.00 | 0.00 | 35 | 1023.4 |
| 20260508184618 | 71 | 350 | 4.0 | 9.0 | 0.00 | 0.00 | 0.00 | 36 | 1023.4 |
| 20260508183056 | 71 | 36 | 4.0 | 10.0 | 0.00 | 0.00 | 0.00 | 33 | 1023.5 |
| 20260508181605 | 71 | 5 | 3.0 | 8.0 | 0.00 | 0.00 | 0.00 | 33 | 1023.4 |
| 20260508180059 | 71 | 348 | 3.0 | 8.0 | 0.00 | 0.00 | 0.00 | 34 | 1023.5 |
| 20260508174553 | 71 | 325 | 2.0 | 9.0 | 0.00 | 0.00 | 0.00 | 34 | 1023.4 |
| 20260508173053 | 70 | 5 | 3.0 | 8.0 | 0.00 | 0.00 | 0.00 | 33 | 1023.3 |
| 20260508171553 | 69 | 333 | 3.0 | 10.0 | 0.00 | 0.00 | 0.00 | 32 | 1023.2 |
| 20260508170054 | 69 | 5 | 3.0 | 9.0 | 0.00 | 0.00 | 0.00 | 32 | 1023.2 |
| 20260508164559 | 68 | 331 | 4.0 | 10.0 | 0.00 | 0.00 | 0.00 | 31 | 1023.1 |
| 20260508163049 | 68 | 24 | 4.0 | 10.0 | 0.00 | 0.00 | 0.00 | 32 | 1023.2 |
| 20260508161552 | 67 | 360 | 3.0 | 12.0 | 0.00 | 0.00 | 0.00 | 31 | 1023.1 |
| 20260508160055 | 66 | 360 | 3.0 | 7.0 | 0.00 | 0.00 | 0.00 | 34 | 1023.0 |
| 20260508154552 | 66 | 332 | 4.0 | 10.0 | 0.00 | 0.00 | 0.00 | 33 | 1023.0 |
| 20260508153053 | 65 | 333 | 3.0 | 5.0 | 0.00 | 0.00 | 0.00 | 36 | 1023.0 |
| 20260508151603 | 64 | 13 | 3.0 | 7.0 | 0.00 | 0.00 | 0.00 | 35 | 1022.8 |
| 20260508150103 | 64 | 315 | 3.0 | 6.0 | 0.00 | 0.00 | 0.00 | 35 | 1022.8 |
| 20260508144621 | 63 | 338 | 3.0 | 6.0 | 0.00 | 0.00 | 0.00 | 35 | 1022.7 |
| 20260508143106 | 62 | 340 | 3.0 | 5.0 | 0.00 | 0.00 | 0.00 | 35 | 1022.7 |
| 20260508141602 | 62 | 332 | 3.0 | 6.0 | 0.00 | 0.00 | 0.00 | 36 | 1022.6 |
| 20260508140054 | 61 | 333 | 3.0 | 5.0 | 0.00 | 0.00 | 0.00 | 36 | 1022.6 |
| 20260508134600 | 60 | 333 | 3.0 | 4.0 | 0.00 | 0.00 | 0.00 | 36 | 1022.5 |
| 20260508133115 | 60 | 333 | 3.0 | 5.0 | 0.00 | 0.00 | 0.00 | 35 | 1022.3 |
| 20260508131551 | 60 | 336 | 2.0 | 4.0 | 0.00 | 0.00 | 0.00 | 35 | 1022.3 |
| 20260508130052 | 60 | 333 | 2.0 | 4.0 | 0.00 | 0.00 | 0.00 | 36 | 1022.0 |
| 20260508124550 | 59 | 326 | 2.0 | 4.0 | 0.00 | 0.00 | 0.00 | 36 | 1022.0 |
| 20260508123100 | 60 | 324 | 2.0 | 4.0 | 0.00 | 0.00 | 0.00 | 37 | 1021.9 |
| 20260508121550 | 60 | 327 | 2.0 | 4.0 | 0.00 | 0.00 | 0.00 | 37 | 1021.7 |
| 20260508120053 | 59 | 327 | 2.0 | 4.0 | 0.00 | 0.00 | 0.00 | 39 | 1021.7 |
| 20260508114557 | 59 | 0 | 0.0 | 0.0 | 0.00 | 0.00 | 0.00 | 40 | 1021.8 |
| 20260508113106 | 59 | 0 | 0.0 | 0.0 | 0.00 | 0.00 | 0.00 | 44 | 1021.8 |
| 20260508111605 | 59 | 0 | 0.0 | 0.0 | 0.00 | 0.00 | 0.00 | 41 | 1021.7 |
| 20260508110055 | 60 | 0 | 0.0 | 0.0 | 0.00 | 0.00 | 0.00 | 40 | 1021.8 |
| 20260508104550 | 59 | 0 | 0.0 | 0.0 | 0.00 | 0.00 | 0.00 | 40 | 1021.9 |
| 20260508103059 | 59 | 0 | 0.0 | 0.0 | 0.00 | 0.00 | 0.00 | 43 | 1022.0 |
| 20260508101600 | 59 | 0 | 0.0 | 0.0 | 0.00 | 0.00 | 0.00 | 44 | 1021.9 |
| 20260508100049 | 60 | 0 | 0.0 | 0.0 | 0.00 | 0.00 | 0.00 | 44 | 1022.0 |
| 20260508094550 | 59 | 0 | 0.0 | 0.0 | 0.00 | 0.00 | 0.00 | 44 | 1021.9 |